Location: L�beck
(53.8752°N, 10.6787°E)
Time: 18:24:14
(UTC+02:00)

ISS - Pass Details

Date: 08 January 2018
Orbit: 401 x 409 km, 51.6° (Epoch: 22 August)

Event Time Altitude Azimuth Distance (km) Brightness Sun altitude
Exits shadow 06:39:48 29° 248° (WSW) 810 -2.8 -15.5°
Maximum altitude 06:41:03 43° 196° (SSW) 603 -3.0 -15.4°
Drops below altitude 10° 06:44:19 10° 124° (ESE) 1,515 0.3 -14.9°
Sets 06:46:29 0° 117° (ESE) 2,382 1.9 -14.6°
